Weather History for Pinedale, WY

Change the Weather History Date:

Tuesday, March 19, 2013

  Actual Average (KBPI) Record (KBPI)
Temperature  
Mean Temperature 22 °F 29 °F  
Max Temperature 37 °F 43 °F 62 °F (2007)
Min Temperature 8 °F 15 °F -2 °F (1980)
Degree Days  
Heating Degree Days 42 36  
Month to date heating degree days 766  
Since 1 July heating degree days 8289  
Cooling Degree Days 0 0  
Month to date cooling degree days 0  
Year to date cooling degree days 0  
Moisture  
Dew Point 3 °F    
Average Humidity 48    
Maximum Humidity 85    
Minimum Humidity 16    
Precipitation  
Precipitation 0.00 in 0.02 in 0.13 in (2010)
Month to date precipitation 0.23  
Year to date precipitation 0.89  
Sea Level Pressure  
Sea Level Pressure 30.14 in    
Wind  
Wind Speed 8 mph (WNW)    
Max Wind Speed 25 mph    
Max Gust Speed 31 mph    
Visibility 10 miles    
Events      
T = Trace of Precipitation, MM = Missing Value Source: NWS Daily Summary

Daily Weather History Graph

Daily Weather History Graph

Search for Another Location

Airport:

Trip Planner

Search our weather history database for the weather conditions in past years. The results will help you decide how hot, cold, wet, or windy it might be!

Date:

Astronomy

Mar. 19, 2013 Rise Set
Actual Time 7:23 AM MDT 7:30 PM MDT
Civil Twilight 6:55 AM MDT 7:58 PM MDT
Nautical Twilight 6:22 AM MDT 8:32 PM MDT
Astronomical Twilight 5:48 AM MDT 9:05 PM MDT
Moon 12:09 PM MDT (3/19) 2:27 AM MDT (3/19)
Length of Visible Light 13h 03m
Length of Day
12h 07m
Waxing Crescent, 50% of the Moon is Illuminated
Mar 19
Waxing Crescent
Mar 27
Full
Apr 2
Last Quarter
Apr 10
New
Apr 18
First Quarter

Hourly Weather History & Observations

Time (MDT) Temp. Windchill Dew Point Humidity Pressure Visibility Wind Dir Wind Speed Gust Speed Precip Events Conditions
12:15 AM 19.4 °F 14.3 °F 12.2 °F 74% 29.97 in 10.0 mi North 3.5 mph - N/A   Scattered Clouds
12:35 AM 21.2 °F 16.4 °F 10.4 °F 63% 29.98 in 10.0 mi NNW 3.5 mph - N/A   Clear
12:55 AM 19.4 °F 11.5 °F 10.4 °F 68% 29.99 in 10.0 mi West 5.8 mph - N/A   Clear
1:15 AM 19.4 °F 10.4 °F 10.4 °F 68% 29.99 in 10.0 mi West 6.9 mph - N/A   Clear
1:55 AM 21.2 °F 10.9 °F 10.4 °F 63% 30.01 in 10.0 mi West 9.2 mph - N/A   Scattered Clouds
2:15 AM 17.6 °F 9.3 °F 10.4 °F 73% 30.02 in 10.0 mi NW 5.8 mph - N/A   Scattered Clouds
2:35 AM 19.4 °F 10.4 °F 10.4 °F 68% 30.03 in 10.0 mi NW 6.9 mph - N/A   Scattered Clouds
2:55 AM 17.6 °F 10.7 °F 10.4 °F 73% 30.03 in 10.0 mi NNW 4.6 mph - N/A   Scattered Clouds
3:15 AM 14.0 °F 6.5 °F 8.6 °F 79% 30.03 in 10.0 mi NW 4.6 mph - N/A   Clear
3:35 AM 14.0 °F 5.1 °F 8.6 °F 79% 30.04 in 10.0 mi NNW 5.8 mph - N/A   Clear
3:55 AM 14.0 °F 6.5 °F 8.6 °F 79% 30.04 in 10.0 mi NW 4.6 mph - N/A   Clear
4:15 AM 12.2 °F 4.3 °F 8.6 °F 85% 30.04 in 10.0 mi WSW 4.6 mph - N/A   Clear
4:35 AM 12.2 °F 1.7 °F 8.6 °F 85% 30.05 in 10.0 mi NE 6.9 mph - N/A   Clear
4:55 AM 12.2 °F 6.1 °F 6.8 °F 79% 30.05 in 10.0 mi West 3.5 mph - N/A   Clear
5:15 AM 12.2 °F 4.3 °F 6.8 °F 79% 30.05 in 10.0 mi West 4.6 mph - N/A   Clear
5:35 AM 10.4 °F -0.4 °F 6.8 °F 85% 30.06 in 10.0 mi West 6.9 mph - N/A   Clear
5:55 AM 10.4 °F 0.8 °F 6.8 °F 85% 30.07 in 10.0 mi NNW 5.8 mph - N/A   Clear
6:15 AM 12.2 °F 2.9 °F 6.8 °F 79% 30.08 in 10.0 mi WNW 5.8 mph - N/A   Clear
6:35 AM 10.4 °F 0.8 °F 5.0 °F 79% 30.09 in 10.0 mi WSW 5.8 mph - N/A   Clear
6:55 AM 10.4 °F -0.4 °F 5.0 °F 79% 30.09 in 10.0 mi WSW 6.9 mph - N/A   Scattered Clouds
7:15 AM 8.6 °F 0.1 °F 5.0 °F 85% 30.09 in 10.0 mi WNW 4.6 mph - N/A   Scattered Clouds
7:35 AM 8.6 °F -1.3 °F 5.0 °F 85% 30.10 in 10.0 mi NNW 5.8 mph - N/A   Clear
7:55 AM 10.4 °F 0.8 °F 5.0 °F 79% 30.11 in 10.0 mi WSW 5.8 mph - N/A   Clear
8:15 AM 10.4 °F 0.8 °F 6.8 °F 85% 30.11 in 10.0 mi West 5.8 mph - N/A   Clear
8:35 AM 14.0 °F 5.1 °F 8.6 °F 79% 30.12 in 10.0 mi West 5.8 mph - N/A   Clear
8:55 AM 19.4 °F 9.5 °F 10.4 °F 68% 30.13 in 10.0 mi West 8.1 mph - N/A   Scattered Clouds
9:15 AM 23.0 °F 13.9 °F 8.6 °F 54% 30.13 in 10.0 mi NW 8.1 mph - N/A   Scattered Clouds
9:35 AM 24.8 °F 13.4 °F 8.6 °F 50% 30.14 in 10.0 mi NW 12.7 mph - N/A   Scattered Clouds
9:55 AM 26.6 °F 14.7 °F 6.8 °F 43% 30.14 in 10.0 mi WNW 15.0 mph - N/A   Scattered Clouds
10:15 AM 26.6 °F 15.2 °F 5.0 °F 40% 30.14 in 10.0 mi WNW 13.8 mph 19.6 mph N/A   Scattered Clouds
10:35 AM 28.4 °F 17.5 °F 5.0 °F 37% 30.15 in 10.0 mi WNW 13.8 mph 21.9 mph N/A   Scattered Clouds
10:55 AM 28.4 °F 17.0 °F 3.2 °F 34% 30.16 in 10.0 mi NW 15.0 mph 20.7 mph N/A   Clear
11:15 AM 30.2 °F 19.3 °F 3.2 °F 32% 30.16 in 10.0 mi WNW 15.0 mph 20.7 mph N/A   Scattered Clouds
11:35 AM 32.0 °F 21.2 °F 1.4 °F 27% 30.17 in 10.0 mi WNW 16.1 mph 23.0 mph N/A   Scattered Clouds
11:55 AM 32.0 °F 21.2 °F -0.4 °F 25% 30.18 in 10.0 mi NW 16.1 mph 24.2 mph N/A   Clear
12:15 PM 32.0 °F 21.6 °F -2.2 °F 23% 30.18 in 10.0 mi WNW 15.0 mph 23.0 mph N/A   Clear
12:35 PM 32.0 °F 20.1 °F -4.0 °F 21% 30.18 in 10.0 mi WNW 19.6 mph 27.6 mph N/A   Clear
12:55 PM 33.8 °F 22.5 °F -4.0 °F 20% 30.17 in 10.0 mi WNW 19.6 mph 27.6 mph N/A   Clear
1:15 PM 33.8 °F 21.6 °F -5.8 °F 18% 30.16 in 10.0 mi West 23.0 mph 28.8 mph N/A   Clear
1:35 PM 33.8 °F 21.9 °F -5.8 °F 18% 30.17 in 10.0 mi NW 21.9 mph 29.9 mph N/A   Clear
1:55 PM 35.6 °F 24.5 °F -5.8 °F 17% 30.17 in 10.0 mi WNW 20.7 mph 28.8 mph N/A   Clear
2:15 PM 35.6 °F 23.4 °F -7.6 °F 16% 30.17 in 10.0 mi WNW 25.3 mph 29.9 mph N/A   Clear
2:35 PM 35.6 °F 24.0 °F -5.8 °F 17% 30.17 in 10.0 mi WNW 23.0 mph 31.1 mph N/A   Clear
2:55 PM 35.6 °F 25.2 °F -5.8 °F 17% 30.17 in 10.0 mi NW 18.4 mph 27.6 mph N/A   Clear
3:15 PM 35.6 °F 25.5 °F -5.8 °F 17% 30.18 in 10.0 mi NW 17.3 mph 26.5 mph N/A   Clear
3:35 PM 37.4 °F 27.8 °F -4.0 °F 17% 30.18 in 10.0 mi NW 17.3 mph 21.9 mph N/A   Clear
3:55 PM 35.6 °F 25.9 °F -5.8 °F 17% 30.18 in 10.0 mi West 16.1 mph 25.3 mph N/A   Clear
4:15 PM 35.6 °F 25.5 °F -5.8 °F 17% 30.18 in 10.0 mi WNW 17.3 mph 23.0 mph N/A   Scattered Clouds
4:35 PM 35.6 °F 26.6 °F -5.8 °F 17% 30.19 in 10.0 mi WNW 13.8 mph 24.2 mph N/A   Scattered Clouds
4:55 PM 35.6 °F 26.2 °F -5.8 °F 17% 30.19 in 10.0 mi NW 15.0 mph 24.2 mph N/A   Mostly Cloudy
5:15 PM 35.6 °F 27.5 °F -5.8 °F 17% 30.19 in 10.0 mi WNW 11.5 mph 21.9 mph N/A   Mostly Cloudy
5:35 PM 35.6 °F 27.1 °F -5.8 °F 17% 30.19 in 10.0 mi WNW 12.7 mph 20.7 mph N/A   Mostly Cloudy
5:55 PM 35.6 °F 27.1 °F -4.0 °F 18% 30.19 in 10.0 mi West 12.7 mph 19.6 mph N/A   Scattered Clouds
6:15 PM 35.6 °F 27.1 °F -5.8 °F 17% 30.19 in 10.0 mi West 12.7 mph - N/A   Scattered Clouds
6:35 PM 33.8 °F 24.8 °F -5.8 °F 18% 30.19 in 10.0 mi West 12.7 mph 16.1 mph N/A   Mostly Cloudy
6:55 PM 33.8 °F 26.4 °F -4.0 °F 20% 30.19 in 10.0 mi WNW 9.2 mph - N/A   Scattered Clouds
7:15 PM 32.0 °F 28.7 °F -0.4 °F 25% 30.20 in 10.0 mi West 3.5 mph - N/A   Scattered Clouds
7:35 PM 32.0 °F 27.5 °F -0.4 °F 25% 30.20 in 10.0 mi West 4.6 mph - N/A   Clear
7:55 PM 26.6 °F 19.1 °F 1.4 °F 34% 30.20 in 10.0 mi West 6.9 mph - N/A   Clear
8:15 PM 24.8 °F - 3.2 °F 40% 30.21 in 10.0 mi Calm Calm - N/A   Clear
8:35 PM 28.4 °F 23.3 °F 3.2 °F 34% 30.21 in 10.0 mi WNW 4.6 mph - N/A   Clear
8:55 PM 23.0 °F 18.4 °F 6.8 °F 50% 30.22 in 10.0 mi NNE 3.5 mph - N/A   Clear
9:15 PM 23.0 °F 18.4 °F 5.0 °F 46% 30.22 in 10.0 mi North 3.5 mph - N/A   Clear
9:35 PM 23.0 °F - 5.0 °F 46% 30.22 in 10.0 mi Calm Calm - N/A   Clear
9:55 PM 24.8 °F - 3.2 °F 40% 30.22 in 10.0 mi Calm Calm - N/A   Clear
10:15 PM 19.4 °F 12.8 °F 5.0 °F 54% 30.22 in 10.0 mi NW 4.6 mph - N/A   Clear
10:35 PM 19.4 °F - 6.8 °F 58% 30.22 in 10.0 mi Calm Calm - N/A   Clear
10:55 PM 17.6 °F - 6.8 °F 63% 30.22 in 10.0 mi Calm Calm - N/A   Scattered Clouds
11:15 PM 19.4 °F - 8.6 °F 63% 30.22 in 10.0 mi Calm Calm - N/A   Scattered Clouds
11:35 PM 19.4 °F - 8.6 °F 63% 30.21 in 10.0 mi Calm Calm - N/A   Mostly Cloudy
11:55 PM 15.8 °F 8.6 °F 8.6 °F 73% 30.21 in 10.0 mi WNW 4.6 mph - N/A   Mostly Cloudy